星链-11423 (STARLINK-11423)

导读

STARLINK-11423是美国SpaceX公司星链星座的第二代卫星,于2024年11月14日发射入轨,属于星链Gen2星座部署批次,旨在完善全球低轨卫星互联网覆盖。该卫星继承星链成熟设计,配备相控阵天线与氪离子推进系统,支持激光星间通信,可提供低时延宽带接入服务,服务范围涵盖民用通信、海事航空及应急场景,助力星链星座完成规模化组网。

基本信息
目录编号:
61950
目录名称:
STARLINK-11423
国际标识:
2024-209M
轨道中心:
EARTH
卫星名称:
星链-11423
卫星全名:
星链-11423 (STARLINK-11423)
卫星状态:
在轨 (已飞行573 天)
发射日期:
2024-11-14 UTC
国别 :
美国 (US)
星等 :
--
轨道信息
数据来源 国际轨道数据
星历时间: 2026-06-10T04:32:29+0800
14小时前
查看轨道信息
半长轴: 6737.718km
偏心率: 0.0000932
轨道倾角: 53.156°
近地点辐角 54.215°
升交点赤经 276.918°
平近点角 305.895°
近地点: 358.953km
远地点: 360.209km
周期: 91.734分钟
每日圈数: 15.697612
详细信息
固有亮度:
5
最大亮度:
2.5
卫星平台:
Starlink V1.0
覆盖范围:
全球
运营商:
太空探索技术公司
运营商所在国:
美国
制造商(研发单位):
太空探索技术公司
制造商所在国:
美国
使用方式:
暂无
卫星简介
Starlink 计划是 SpaceX 推出的全球卫星互联网项目,通过发射低轨道卫星,为全球尤其是偏远地区提供高速、低延迟的互联网服务。自 2019 年起,Starlink 已部署数千颗卫星,旨在缩小全球数字鸿沟,推动互联网普及。该项目还为军事、航空等行业提供通信支持,带来广泛经济效益。
2D轨道图
3D轨道图
轨道高度分析图
轨道倾角分析图
轨道综合分析图
查看轨道综合分析图